Skip Page Navigation
NASA JPL Caltech
NASA Logo - Jet Propulsion Laboratory + View the NASA Portal
+ Center for Near-Earth Object Studies
JPL Home Earth Solar System Stars & Galaxies Technology
JPL Solar System Dynamics
BODIES ORBITS EPHEMERIDES TOOLS PHYSICAL DATA DISCOVERY FAQ SITE MAP
IMPORTANT: The SSD Announcement email list is now available. Major changes are coming in the near future, including possible hostname and/or URL changes. To be notified of such changes, subscribe to this email list.

Please visit this page for more details.


JPL Small-Body Database Browser
Search: [ help ]  
27429 (2000 FL8)
Classification: Main-belt Asteroid          SPK-ID: 2027429
Ephemeris | Orbit Diagram | Orbital Elements | Mission Design | Physical Parameters | Discovery Circumstances ]

[ show orbit diagram ]
Orbital Elements at Epoch 2459000.5 (2020-May-31.0) TDB
Reference: JPL 26 (heliocentric ecliptic J2000)
 Element Value Uncertainty (1-sigma)   Units 
e .07329549052132017 4.4571e-08  
a 2.445226542993097 9.32e-09 au
q 2.266002464088666 1.0716e-07 au
i 4.955221910732062 4.5213e-06 deg
node 49.03496467406474 4.0716e-05 deg
peri 15.14378843154604 5.015e-05 deg
M 239.0458142372775 2.7978e-05 deg
tp 2459469.740490907080
(2021-Sep-12.24049091)
0.00010856 TDB
period 1396.616211843503
3.82
7.9848e-06
2.186e-08
d
yr
n .2577658750823233 1.4737e-09 deg/d
Q 2.624450621897529 1.0003e-08 au
  Orbit Determination Parameters
   # obs. used (total)      1482  
   data-arc span      13935 days (38.15 yr)  
   first obs. used      1981-05-08  
   last obs. used      2019-07-03  
   planetary ephem.      DE431  
   SB-pert. ephem.      SB431-N16  
   condition code      0  
   norm. resid. RMS      .52659  
   source      ORB  
   producer      Otto Matic  
   solution date      2020-Feb-23 01:03:13  

Additional Information
 Earth MOID = 1.27943 au 
 Jupiter MOID = 2.5791 au 
 T_jup = 3.490 
[ show covariance matrix ]

Ephemeris | Orbit Diagram | Orbital Elements | Mission Design | Physical Parameters | Discovery Circumstances ]

Physical Parameter Table
Parameter Symbol Value Units Sigma Reference Notes
absolute magnitude H 14.5   n/a MPO384982  

27429 (2000 FL8)          Discovered 2000-Mar-28 by Farpoint at Farpoint
Reference: 20010804/Numbers.arcLast Updated: 2004-04-19

Alternate Designations
 2000 FL8 = 1981 JS3 = 1998 XO37 
Ephemeris | Orbit Diagram | Orbital Elements | Mission Design | Physical Parameters | Discovery Circumstances ]
ABOUT SSD CREDITS/AWARDS PRIVACY/COPYRIGHT GLOSSARY LINKS
FirstGov 2020-Apr-01 06:27 UT
(server date/time)  
NASA Home Page
Site Manager:   Ryan S. Park
Webmaster  Alan B. Chamberlin